Flag for United Kingdom Weather past 2 weeks in Perth, Scotland, United Kingdom

Now
46 °F

Rain showers. Overcast.


Feels Like: 37 °F
Forecast: 41 / 45 °F
Wind: 22 mph from Southwest

Location: Strathallan

Current Time: Dec 22, 2014 at 9:35:24 AM

Latest Report: Dec 22, 2014 at 8:00 AM


Visibility: 28 mi

Pressure: 29.55 "Hg

Humidity: 72%

Dew point: 37 °F

Location of PerthLocation

Historic Weather in Perth — Graph

°F

Perth temperature yesterday

Maximum temperature yesterday: 52 °F (at 4:00 PM)
Minimum temperature yesterday: 44 °F (at 12:00 AM)
Average temperature yesterday: 48 °F

Past Weeks' High & Low Weather Summary

 TemperatureHumidityPressure
High52 °F (Dec 9, 4:00 PM)100% (Dec 9, 6:00 AM)30.24 "Hg (Dec 9, 6:00 AM)
Low29 °F (Dec 9, 3:00 AM)61% (Dec 16, 12:00 PM)29.15 "Hg (Dec 12, 2:00 AM)
Average40 °F85%29.59 "Hg
* Reported Dec 7 8:00 AM — Dec 22 8:00 AM, Perth, Weather by CustomWeather, © 2014

Note: Actual official high and low records may vary slightly from our data, if they occured in-between our weather recording intervals... More about our weather records

Advertising

Perth weather history for previous 24 hours

 ConditionsComfort  
Time TempWeatherWind HumidityBarometerVisibility
8:00 AM
Dec 22
46 °FRain showers. Overcast.22 mph72%29.55 "Hg28 mi
7:00 AM45 °FQuite cool.17 mph90%29.56 "Hg31 mi
6:00 AM45 °FLight rain. Overcast.15 mph91%29.54 "Hg31 mi
5:00 AM45 °FRain. Overcast.12 mph94%29.56 "Hg25 mi
4:00 AM47 °FLight rain. Overcast.14 mph79%29.54 "Hg12 mi
2:00 AM49 °FRain. Overcast.14 mph96%29.55 "Hg11 mi
1:00 AM49 °FLight rain. Overcast.16 mph96%29.55 "Hg9 mi
12:00 AM50 °FLight rain. Overcast.15 mph96%29.58 "Hg10 mi
11:00 PM
Dec 21
50 °FLight rain. Overcast.16 mph96%29.59 "Hg9 mi
9:00 PM51 °FRain. Overcast.16 mph96%29.60 "Hg6 mi
8:00 PM51 °FRain. Overcast.20 mph96%29.61 "Hg5 mi
7:00 PM51 °FRain. Overcast.20 mph96%29.61 "Hg5 mi
6:00 PM52 °FRain. Overcast.20 mph96%29.62 "Hg6 mi
5:00 PM52 °FRain. Overcast.22 mph96%29.63 "Hg4 mi
4:00 PM52 °FRain. Overcast.23 mph95%29.65 "Hg4 mi
3:00 PM51 °FRain. Cloudy.22 mph95%29.67 "Hg4 mi
2:00 PM51 °FDrizzle. Cloudy.22 mph94%29.68 "Hg3 mi
1:00 PM51 °FRain. Cloudy.25 mph94%29.72 "Hg5 mi
12:00 PM50 °FLight rain. Cloudy.24 mph95%29.75 "Hg7 mi
11:00 AM49 °FDrizzle. Cloudy.20 mph95%29.79 "Hg7 mi
10:00 AM47 °FDrizzle. Cloudy.17 mph95%29.82 "Hg4 mi
9:00 AM47 °FLight rain. Cloudy.17 mph96%29.84 "Hg4 mi
Weather by CustomWeather, © 2014

See weather overviewHow to use our weather pages